Home   Weather   Völkermarkt   Past weeks

Flag for Austria Past Weather in Völkermarkt, Carinthia, Austria — Yesterday and Last 2 Weeks

Now
46 °F

Overcast.


Feels Like: N/A
Forecast: 30 / 46 °F
Wind: N/A

Location: Klagenfurt-Flughafen

Current Time: Feb 26, 2017 at 5:56:29 pm

Latest Report: Feb 26, 2017 at 5:00 pm


Visibility: 25 mi

Pressure: 30.07 "Hg

Humidity: 52%

Dew Point: 29 °F

Location of VölkermarktLocation

Past Weather in Völkermarkt — Graph

°F

Völkermarkt Temperature Yesterday

Maximum temperature yesterday: 47 °F (at 4:00 pm)
Minimum temperature yesterday: 30 °F (at 11:00 pm)
Average temperature yesterday: 37 °F

High & Low Weather Summary for the Past Weeks

 TemperatureHumidityPressure
High57 °F (Feb 23, 4:00 pm)100% (Feb 18, 4:00 am)30.75 "Hg (Feb 18, 4:00 am)
Low23 °F (Feb 15, 7:00 am)41% (Feb 25, 5:00 pm)29.67 "Hg (Feb 24, 6:00 am)
Average36 °F82%30.28 "Hg
* Reported Feb 11 4:00 pm — Feb 26 4:00 pm, Völkermarkt, Weather by CustomWeather, © 2017

Note: Actual official high and low records may vary slightly from our data, if they occured in-between our weather recording intervals... More about our weather records

Advertising

Völkermarkt Weather History for the Previous 24 Hours

Scroll right to see more
 ConditionsComfort  
Time TempWeatherWind HumidityBarometerVisibility
4:00 pm
Sun, Feb 26
48 °FOvercast.N/A46%30.06 "Hg25 mi
3:00 pm47 °FOvercast.N/A44%30.07 "Hg25 mi
2:00 pm46 °FOvercast.N/A46%30.08 "Hg28 mi
1:00 pm45 °FOvercast.N/A50%30.11 "Hg28 mi
12:00 pm43 °FPartly sunny.N/A54%30.14 "Hg22 mi
11:00 am40 °FScattered clouds.N/A63%30.17 "Hg17 mi
10:00 am36 °FScattered clouds.N/A70%30.19 "Hg17 mi
9:00 am31 °FScattered clouds.N/A85%30.23 "Hg17 mi
8:00 am27 °FScattered clouds.N/A93%30.26 "Hg14 mi
7:00 am25 °FScattered clouds.N/A93%30.27 "Hg12 mi
6:00 am26 °FChilly.N/A92%30.27 "Hg11 mi
5:00 am27 °FChilly.N/A92%30.28 "Hg14 mi
4:00 am27 °FChilly.N/A93%30.29 "Hg7 mi
3:00 am28 °FChilly.N/A91%30.32 "Hg7 mi
2:00 am28 °FChilly.N/A92%30.33 "Hg13 mi
1:00 am28 °FChilly.N/A91%30.33 "Hg10 mi
12:00 am29 °FChilly.N/A91%30.34 "Hg14 mi
11:00 pm
Sat, Feb 25
30 °FPassing clouds.N/A89%30.34 "Hg14 mi
10:00 pm31 °FPassing clouds.N/A86%30.33 "Hg14 mi
9:00 pm31 °FPassing clouds.N/A83%30.31 "Hg22 mi
8:00 pm34 °FPassing clouds.N/A81%30.29 "Hg25 mi
7:00 pm36 °FPassing clouds.N/A73%30.27 "Hg28 mi
6:00 pm41 °FPassing clouds.N/A59%30.24 "Hg25 mi
5:00 pm45 °FPassing clouds.N/A41%30.21 "Hg28 mi
Weather by CustomWeather, © 2017

See weather overviewHow to use our weather pages

LIVE ANNULAR SOLAR ECLIPSE – Watch the eclipse as it happens